Preview of NWS' New Version of Forecast
This preview is not operational and should not be used for support decisions.

Regional Weather Roundup (RWR)

Issued by Philadelphia/Mt Holly (PHI)

                            
000
ASUS41 KPHI 180312
RWRPHI

REGIONAL WEATHER ROUNDUP
NATIONAL WEATHER SERVICE MOUNT HOLLY NJ
1100 PM EDT TUE SEP 17 2019

NOTE:  "FAIR" INDICATES FEW OR NO CLOUDS BELOW 12,000 FEET WITH NO
SIGNIFICANT WEATHER AND/OR OBSTRUCTIONS TO VISIBILITY.

 * = STATION DOES NOT REPORT PRECIPITATION (E.G. RAIN, SNOW, ETC.) 
        OR FOG.

NJZ015>026-180400-
SOUTHERN NEW JERSEY
  
CITY           SKY/WX    TMP DP  RH WIND       PRES   REMARKS
POMONA         FAIR      59  52  77 CALM      30.13S                  
WILDWOOD*      FAIR      57  53  86 CALM      30.13S                  
MILLVILLE      FAIR      54  51  90 CALM      30.13S                  
WRIGHTSTOWN    FAIR      55  52  88 CALM      30.14S                  
MOUNT HOLLY    FAIR      56  53  90 CALM      30.14R                  
TRENTON        FAIR      60  47  61 N3        30.14S                  

$$
NJZ001>014-180400-
NORTHERN NEW JERSEY
  
CITY           SKY/WX    TMP DP  RH WIND       PRES   REMARKS
SUSSEX         FAIR      51  48  89 CALM      30.18S                  
ANDOVER*         N/A     53  52  96 CALM      30.18R                  
MORRISTOWN     FAIR      50  50 100 CALM      30.16S                  
NEWARK         FAIR      64  46  52 N6        30.15R                  
TETERBORO      FAIR      65  43  44 N5        30.15R                  
CALDWELL       FAIR      60  47  61 CALM      30.17R                  
SOMERVILLE     FAIR      55  52  89 N3        30.14R                  
ALLAIRE*       FAIR      62  54  74 E3        30.15S                  
TOMS RIVER*    FAIR      52  32  46 CALM      30.15R                  

$$
PAZ043-044-047-054-055-060>062-066>071-180400-
EASTERN PENNSYLVANIA
  
CITY           SKY/WX    TMP DP  RH WIND       PRES   REMARKS
PHILADELPHIA   FAIR      63  52  67 CALM      30.14S                  
NORTH PHILA    FAIR      61  50  67 CALM      30.15S                  
BLUE BELL*     FAIR      52  51  95 CALM      30.15S                  
DOYLESTOWN     FAIR      58  50  75 CALM      30.15R                  
QUAKERTOWN*    CLEAR     55  54  94 CALM      30.16                   
PERKASIE*      FAIR      54  54 100 CALM      30.17S                  
POTTSTOWN      FAIR      56  52  86 CALM      30.16S                  
LANCASTER      FAIR      61  50  67 N7        30.14S                  
COATESVILLE    FAIR      59  54  82 N3        30.16S                  
WEST CHESTER   FAIR      61  52  72 CALM      30.15S                  
READING        FAIR      60  52  74 NW5       30.14R                  
ALLENTOWN      FAIR      64  47  53 E5        30.16R                  
QN CITY/ALNTWN FAIR      61  54  77 CALM      30.17S                  
MOUNT POCONO   FAIR      51  44  77 CALM      30.21R                  
HAZLETON       FAIR      61  43  51 N3        30.23R                  
LEHIGHTON      FAIR      50  48  93 CALM      30.19R                  
WILKES BARRE   FAIR      56  47  71 E6        30.19R                  

$$
DEZALL-MDZ008-012-015-019-020-180400-
DELAWARE AND EASTERN MARYLAND
  
CITY           SKY/WX    TMP DP  RH WIND       PRES   REMARKS
WILMINGTON     FAIR      65  55  70 CALM      30.14S                  
DOVER          FAIR      61  53  75 CALM      30.12S                  
CHESWOLD       CLEAR     57  54  88 CALM      30.13R                  
GEORGETOWN     FAIR      58  55  90 CALM      30.12S                  
EASTON         FAIR      62  55  78 CALM      30.16S                  
STEVENSVILLE   FAIR      66  55  68 SE6       30.13R                  
PATUXENT       FAIR      68  55  63 E8        30.11                   
OCEAN CITY     FAIR      66  53  63 NE6       30.10F                  
WALLOPS ISLAND FAIR      67  51  56 NE13      30.10F                  
CAMBRIDGE      CLEAR     59  54  82 CALM      30.12S                  
SALISBURY      FAIR      58  54  86 CALM      30.11S                  

$$
PAZ001-021-NYZ056-072-MDZ011-DCZ001-180400-
OTHER NEARBY LOCATIONS
  
CITY           SKY/WX    TMP DP  RH WIND       PRES   REMARKS
HARRISBURG     FAIR      62  50  64 NW3       30.15R                  
STATE COLLEGE  FAIR      58  50  76 NE5       30.20R                  
WILLIAMSPORT   FAIR      57  52  83 CALM      30.19R                  
BINGHAMTON     FAIR      56  46  69 N10       30.22R                  
NEW YORK CITY  FAIR      65  48  54 VRB5      30.18R                  
BALTIMORE      FAIR      64  56  75 CALM      30.12R                  
WASHINGTON DC  MOCLDY    71  59  65 SE8       30.13R                  

$$